This demonstration page uses our WeatherBlox Daily Observations layout. Learn more.

Left ArrowRight Arrow

39.51506, -84.39828

Hourly Observations for October 18, 2021

Temp ( °F °C ) Dew Point ( °F °C ) Humidity (%) Winds ( mph kmh ) Pressure ( in mb ) Visibility ( mi km ) Precip ( " mm )
12:15 am 00:15 Clear 45 7 N/A N/A WSW 3 6 30.18 1022 10 16 N/A
12:35 am 00:35 Clear 43 6 N/A N/A N N/A 30.18 1022 10 16 N/A
12:55 am 00:55 Clear 43 6 N/A N/A WSW 5 7 30.18 1022 10 16 N/A
1:15 am 01:15 Clear 41 5 N/A N/A SW 5 7 30.18 1022 10 16 N/A
1:35 am 01:35 Clear 43 6 N/A N/A N N/A 30.18 1022 10 16 N/A
1:55 am 01:55 Clear 41 5 N/A N/A N N/A 30.18 1022 10 16 N/A
2:15 am 02:15 Clear 41 5 N/A N/A N N/A 30.18 1022 10 16 N/A
2:35 am 02:35 Hazy 39 4 N/A N/A N N/A 30.18 1022 4 6 N/A
2:55 am 02:55 Clear 41 5 N/A N/A N N/A 30.18 1022 10 16 N/A
3:15 am 03:15 Mostly Cloudy with Mist and Fog 39 4 N/A N/A N N/A 30.19 1023 2 2 N/A
3:35 am 03:35 Mostly Cloudy with Mist and Fog 39 4 N/A N/A N N/A 30.18 1022 1 1 N/A
3:55 am 03:55 Mostly Cloudy with Fog 39 4 N/A N/A N N/A 30.18 1022 1 1 N/A
4:15 am 04:15 Mostly Cloudy with Mist and Fog 41 5 N/A N/A N N/A 30.18 1022 1 2 N/A
4:35 am 04:35 Mostly Cloudy with Fog 39 4 N/A N/A N N/A 30.18 1022 1 1 N/A
4:55 am 04:55 Mostly Cloudy with Mist and Fog 41 5 N/A N/A WSW 3 6 30.18 1022 1 2 N/A
5:15 am 05:15 Mostly Cloudy with Mist and Fog 39 4 N/A N/A N N/A 30.18 1022 2 3 N/A
5:35 am 05:35 Clear 37 3 N/A N/A SW 3 6 30.20 1023 7 11 N/A
5:55 am 05:55 Clear with Mist and Fog 39 4 N/A N/A N N/A 30.19 1023 3 4 N/A
6:15 am 06:15 Clear with Mist and Fog 39 4 N/A N/A N N/A 30.19 1023 3 4 N/A
6:35 am 06:35 Mostly Cloudy with Mist and Fog 37 3 N/A N/A N N/A 30.20 1023 1 1 N/A
6:55 am 06:55 Mostly Cloudy with Mist and Fog 39 4 N/A N/A N N/A 30.20 1023 1 2 N/A
7:15 am 07:15 Clear with Mist and Fog 37 3 N/A N/A N N/A 30.21 1023 2 3 N/A
7:35 am 07:35 Mostly Cloudy with Fog 36 2 N/A N/A SW 3 6 30.21 1023 1 1 N/A
7:55 am 07:55 Sunny with Mist and Fog 37 3 N/A N/A WSW 5 7 30.21 1023 3 5 N/A
8:15 am 08:15 Sunny 39 4 N/A N/A N N/A 30.21 1023 10 16 N/A
8:35 am 08:35 Sunny 41 5 N/A N/A WSW 3 6 30.21 1023 10 16 N/A
8:55 am 08:55 Sunny 43 6 N/A N/A N N/A 30.22 1023 10 16 N/A
9:15 am 09:15 Sunny 45 7 N/A N/A SW 3 6 30.22 1023 10 16 N/A
9:35 am 09:35 Sunny 46 8 N/A N/A S 3 6 30.21 1023 10 16 N/A
9:55 am 09:55 Sunny 48 9.1 47 8.3 95 95 N N/A 30.22 1023 10 16 N/A
10:15 am 10:15 Sunny 51 10.6 47 8.1 85 85 N N/A 30.22 1023 10 16 N/A
10:35 am 10:35 Sunny 54 12.3 48 8.9 80 80 S 3 6 30.20 1023 10 16 N/A
10:55 am 10:55 Sunny 55 13 48 8.8 76 76 S 6 9 30.21 1023 10 16 N/A
11:15 am 11:15 Sunny 58 14.3 49 9.7 74 74 SSW 6 9 30.21 1023 10 16 N/A
11:35 am 11:35 Sunny 59 15.2 49 9.5 69 69 S 5 7 30.21 1023 10 16 N/A
11:55 am 11:55 Sunny 62 16.8 50 9.8 64 64 S 7 11 30.19 1022 10 16 N/A
12:15 pm 12:15 Sunny 64 17.7 47 8.1 54 54 S 6 9 30.19 1022 10 16 N/A
12:35 pm 12:35 Sunny 66 18.8 40 4.4 39 39 WNW 7 11 30.18 1022 10 16 N/A
12:55 pm 12:55 Sunny 66 19.1 37 2.9 34 34 NW 10 17 30.18 1022 10 16 N/A
1:15 pm 13:15 Sunny 67 19.4 38 3.1 34 34 NW 9 15 30.17 1022 10 16 N/A
1:35 pm 13:35 Sunny 68 19.8 39 3.7 35 35 WNW 8 13 30.17 1022 10 16 N/A
1:55 pm 13:55 Sunny 69 20.3 40 4.3 35 35 WNW 10 17 30.15 1021 10 16 N/A
2:15 pm 14:15 Sunny 68 20.2 38 3.6 34 34 WNW 5 7 30.14 1021 10 16 N/A
2:35 pm 14:35 Sunny 68 20.1 37 2.8 32 32 WNW 10 17 30.14 1021 10 16 N/A
2:55 pm 14:55 Sunny 69 20.5 38 3.4 32 32 WNW 8 13 30.13 1020 10 16 N/A
3:15 pm 15:15 Sunny 69 20.5 38 3.1 32 32 W 8 13 30.13 1020 10 16 N/A
3:35 pm 15:35 Sunny 70 20.9 39 3.9 33 33 W 9 15 30.12 1020 10 16 N/A
3:55 pm 15:55 Sunny 70 21.2 38 3.6 32 32 W 10 17 30.12 1020 10 16 N/A
4:15 pm 16:15 Sunny 69 20.7 37 2.8 31 31 SSW 5 7 30.12 1020 10 16 N/A
4:35 pm 16:35 Sunny 69 20.7 38 3.3 32 32 WNW 7 11 30.12 1020 10 16 N/A
4:55 pm 16:55 Sunny 70 21 40 4.4 34 34 WNW 8 13 30.12 1020 10 16 N/A
5:15 pm 17:15 Sunny 69 20.7 38 3.3 32 32 NW 6 9 30.12 1020 10 16 N/A
5:35 pm 17:35 Sunny 69 20.5 39 3.7 33 33 W 7 11 30.12 1020 10 16 N/A
5:55 pm 17:55 Sunny 68 19.9 41 5 38 38 WNW 3 6 30.11 1020 10 16 N/A
6:15 pm 18:15 Sunny 67 19.4 41 4.8 38 38 W 6 9 30.12 1020 10 16 N/A
6:35 pm 18:35 Sunny 63 17.1 44 6.8 51 51 N N/A 30.12 1020 10 16 N/A
6:55 pm 18:55 Clear 57 14.1 46 7.8 66 66 WNW 3 6 30.14 1021 10 16 N/A
7:15 pm 19:15 Clear 54 12 49 9.2 83 83 N N/A 30.14 1021 10 16 N/A
7:35 pm 19:35 Clear 54 12.2 49 9.4 83 83 N N/A 30.14 1021 10 16 N/A
7:55 pm 19:55 Clear 52 10.9 49 9.4 91 91 N N/A 30.15 1021 10 16 N/A
8:15 pm 20:15 Clear 51 10.5 49 9.4 93 93 N N/A 30.16 1021 10 16 N/A
8:35 pm 20:35 Clear 50 10.1 48 9.1 94 94 N N/A 30.16 1021 10 16 N/A
8:55 pm 20:55 Clear 49 9.7 48 9 95 95 N N/A 30.17 1022 10 16 N/A
9:15 pm 21:15 Clear 48 9.1 48 8.9 99 99 N N/A 30.17 1022 10 16 N/A
9:35 pm 21:35 Clear 46 8 46 8 100 100 N N/A 30.17 1022 10 16 N/A
9:55 pm 21:55 Clear 48 9 45 7 87 87 N N/A 30.18 1022 10 16 N/A
10:15 pm 22:15 Clear 46 8 46 8 100 100 N N/A 30.18 1022 10 16 N/A
10:35 pm 22:35 Clear 46 8 N/A N/A N N/A 30.18 1022 10 16 N/A
10:55 pm 22:55 Clear 45 7 N/A N/A N N/A 30.19 1022 10 16 N/A
11:15 pm 23:15 Clear 45 7 N/A N/A N N/A 30.19 1022 10 16 N/A
11:35 pm 23:35 Clear 45 7 N/A N/A N N/A 30.19 1022 10 16 N/A
11:55 pm 23:55 Clear 45 7 N/A N/A N N/A 30.19 1022 10 16 N/A

Powered by AerisWeather